Satellite: DO-64
Catalog number: 32789
Epoch time:      10209.69838449
Element set:    0748
Inclination:      097.8990 deg
RA of node:       274.5387 deg
Eccentricity:    0.0016386
Arg of perigee:   146.3269 deg
Mean anomaly:     213.8967 deg
Mean motion:   14.82227774 rev/day
Decay rate:       9.33e-06 rev/day^2
Epoch rev:           12165
Checksum:              374

Satellite: CO-66
Catalog number: 32791
Epoch time:      10209.18254145
Element set:    0730
Inclination:      097.8941 deg
RA of node:       273.3828 deg
Eccentricity:    0.0016384
Arg of perigee:   146.7635 deg
Mean anomaly:     213.4597 deg
Mean motion:   14.81695923 rev/day
Decay rate:        6.9e-07 rev/day^2
Epoch rev:           12152
Checksum:              327

Satellite: RS-30
Catalog number: 32953
Epoch time:      10210.86914435
Element set:     909
Inclination:      082.5013 deg
RA of node:       003.1306 deg
Eccentricity:    0.0019041
Arg of perigee:   012.8718 deg
Mean anomaly:     347.2847 deg
Mean motion:   12.43006888 rev/day
Decay rate:        1.0e-07 rev/day^2
Epoch rev:            9904
Checksum:              270

Satellite: TACSAT-3
Catalog number: 35001
Epoch time:      10210.72639035
Element set:     345
Inclination:      040.4562 deg
RA of node:       318.5197 deg
Eccentricity:    0.0022344
Arg of perigee:   321.8881 deg
Mean anomaly:     038.0354 deg
Mean motion:   15.42138472 rev/day
Decay rate:      4.490e-05 rev/day^2
Epoch rev:            6720
Checksum:              265

Satellite: PHARMSAT
Catalog number: 35002
Epoch time:      10210.66614138
Element set:     326
Inclination:      040.4704 deg
RA of node:       316.7328 deg
Eccentricity:    0.0025281
Arg of perigee:   324.9346 deg
Mean anomaly:     034.9810 deg
Mean motion:   15.42627659 rev/day
Decay rate:      4.399e-05 rev/day^2
Epoch rev:            6721
Checksum:              279

Satellite: HAWKSAT1
Catalog number: 35003
Epoch time:      10209.71041614
Element set:     348
Inclination:      040.4604 deg
RA of node:       316.0175 deg
Eccentricity:    0.0023564
Arg of perigee:   335.9357 deg
Mean anomaly:     024.0354 deg
Mean motion:   15.46045923 rev/day
Decay rate:      9.349e-05 rev/day^2
Epoch rev:            6714
Checksum:              267

Satellite: CP6
Catalog number: 35004
Epoch time:      10209.68348967
Element set:     345
Inclination:      040.4624 deg
RA of node:       314.9241 deg
Eccentricity:    0.0022385
Arg of perigee:   338.9135 deg
Mean anomaly:     021.0753 deg
Mean motion:   15.46999715 rev/day
Decay rate:     1.1431e-04 rev/day^2
Epoch rev:            6714
Checksum:              298

Satellite: AEROCUB3
Catalog number: 35005
Epoch time:      10209.64446964
Element set:    0397
Inclination:      040.4653 deg
RA of node:       310.4925 deg
Eccentricity:    0.0021020
Arg of perigee:   358.6152 deg
Mean anomaly:     001.4603 deg
Mean motion:   15.53714712 rev/day
Decay rate:     3.8014e-04 rev/day^2
Epoch rev:           06719
Checksum:              267

Satellite: CASTOR
Catalog number: 35694
Epoch time:      10210.73514875
Element set:     599
Inclination:      051.6290 deg
RA of node:       330.7188 deg
Eccentricity:    0.0006024
Arg of perigee:   339.7601 deg
Mean anomaly:     020.3092 deg
Mean motion:   16.13834798 rev/day
Decay rate:    2.68297e-03 rev/day^2
Epoch rev:            5790
Checksum:              315

Satellite: METEOR-M
Catalog number: 35865
Epoch time:      10210.99059917
Element set:     513
Inclination:      098.7550 deg
RA of node:       264.4777 deg
Eccentricity:    0.0001527
Arg of perigee:   248.3927 deg
Mean anomaly:     111.7083 deg
Mean motion:   14.21831100 rev/day
Decay rate:       1.76e-06 rev/day^2
Epoch rev:            4480
Checksum:              292

Satellite: RS-38
Catalog number: 35869
Epoch time:      10210.67600278
Element set:     524
Inclination:      098.7538 deg
RA of node:       264.2002 deg
Eccentricity:    0.0003769
Arg of perigee:   241.3337 deg
Mean anomaly:     118.7444 deg
Mean motion:   14.21985582 rev/day
Decay rate:       1.77e-06 rev/day^2
Epoch rev:            4476
Checksum:              317

/EX




More information about the Keps mailing list